Weather History for Santa Fe, NM

Change the Weather History Date:

Saturday, December 29, 2012

  Actual Average Record
Temperature  
Mean Temperature 21 °F -  
Max Temperature 37 °F 48 °F 57 °F (2005)
Min Temperature 5 °F 15 °F 5 °F (2012)
Degree Days  
Heating Degree Days 44    
Moisture  
Dew Point 5 °F    
Average Humidity 52    
Maximum Humidity 84    
Minimum Humidity 19    
Precipitation  
Precipitation 0.00 in - - ()
Sea Level Pressure  
Sea Level Pressure 30.27 in    
Wind  
Wind Speed 11 mph (NE)    
Max Wind Speed 21 mph    
Max Gust Speed 30 mph    
Visibility 10 miles    
Events      
Averages and records for this station are not official NWS values.
T = Trace of Precipitation, MM = Missing Value Source: NWS Daily Summary

Daily Weather History Graph

Daily Weather History Graph

Search for Another Location

Airport:

Trip Planner

Search our weather history database for the weather conditions in past years. The results will help you decide how hot, cold, wet, or windy it might be!

Date:

Astronomy

Dec. 29, 2012 Rise Set
Actual Time 7:13 AM MST 5:00 PM MST
Civil Twilight 6:45 AM MST 5:28 PM MST
Nautical Twilight 6:13 AM MST 6:00 PM MST
Astronomical Twilight 5:42 AM MST 6:31 PM MST
Moon 6:32 PM MST (12/29) 7:51 AM MST (12/29)
Length of Visible Light 10h 43m
Length of Day
9h 46m
Full, 98% of the Moon is Illuminated
Dec 29
Full
Jan 4
Last Quarter
Jan 11
New
Jan 18
First Quarter
Jan 26
Full

Hourly Weather History & Observations

Time (MST) Temp. Windchill Dew Point Humidity Pressure Visibility Wind Dir Wind Speed Gust Speed Precip Events Conditions
12:53 AM 18.0 °F 5.4 °F 10.9 °F 74% 30.24 in 10.0 mi North 11.5 mph - N/A   Clear
1:53 AM 14.0 °F 2.0 °F 9.0 °F 80% 30.26 in 10.0 mi North 9.2 mph - N/A   Clear
2:53 AM 10.9 °F -5.4 °F 7.0 °F 84% 30.30 in 10.0 mi North 15.0 mph - N/A   Clear
3:53 AM 10.9 °F -3.4 °F 6.1 °F 81% 30.31 in 10.0 mi North 11.5 mph - N/A   Clear
5:53 AM 9.0 °F -7.3 °F 3.0 °F 77% 30.36 in 10.0 mi North 13.8 mph - N/A   Clear
6:53 AM 5.0 °F -10.8 °F 1.0 °F 84% 30.38 in 10.0 mi North 11.5 mph - N/A   Clear
7:53 AM 9.0 °F -10.5 °F 1.9 °F 73% 30.36 in 10.0 mi North 20.7 mph 29.9 mph N/A   Clear
8:53 AM 12.9 °F -2.8 °F 3.0 °F 65% 30.39 in 10.0 mi NNE 15.0 mph 23.0 mph N/A   Clear
9:53 AM 17.1 °F 0.6 °F 3.9 °F 56% 30.40 in 10.0 mi North 19.6 mph - N/A   Clear
10:53 AM 21.9 °F 7.8 °F 3.9 °F 46% 30.35 in 10.0 mi North 17.3 mph 24.2 mph N/A   Clear
11:53 AM 26.1 °F 15.6 °F 3.9 °F 39% 30.31 in 10.0 mi North 11.5 mph - N/A   Clear
12:53 PM 30.0 °F 21.7 °F 3.9 °F 33% 30.25 in 10.0 mi North 9.2 mph - N/A   Clear
1:53 PM 33.1 °F - 3.0 °F 28% 30.23 in 10.0 mi Calm Calm - N/A   Clear
2:53 PM 37.0 °F 28.9 °F -2.0 °F 19% 30.20 in 10.0 mi South 12.7 mph - N/A   Clear
4:53 PM 33.1 °F 24.9 °F 1.0 °F 26% 30.20 in 10.0 mi South 10.4 mph - N/A   Clear
5:53 PM 28.0 °F 21.7 °F 3.9 °F 36% 30.24 in 10.0 mi SE 5.8 mph - N/A   Clear
6:53 PM 27.0 °F 20.5 °F 6.1 °F 41% 30.27 in 10.0 mi ESE 5.8 mph - N/A   Clear
7:53 PM 28.9 °F 21.9 °F 5.0 °F 36% 30.24 in 10.0 mi SE 6.9 mph - N/A   Clear
8:53 PM 27.0 °F - 6.1 °F 41% 30.22 in 10.0 mi Calm Calm - N/A   Clear
9:53 PM 27.0 °F 19.5 °F 5.0 °F 39% 30.19 in 10.0 mi SSE 6.9 mph - N/A   Clear
10:53 PM 27.0 °F 18.0 °F 7.0 °F 43% 30.16 in 10.0 mi SE 9.2 mph - N/A   Clear
11:53 PM 27.0 °F 20.5 °F 7.0 °F 43% 30.14 in 10.0 mi SSE 5.8 mph - N/A   Clear